Previsão horária em Cekob

Hoje, 27 Julho, Terça-feira

Tempo Temperatura Precipitação Vento Pressão Humidade
00:00 +14°C° 0.3 mm 1 m/s 619 mmHg 93%
01:00 +14°C° 0.2 mm 1 m/s 619 mmHg 93%
02:00 +14°C° 0.2 mm 1 m/s 619 mmHg 94%
03:00 +14°C° 0.2 mm 1 m/s 618 mmHg 94%
04:00 +14°C° 0.1 mm 1 m/s 619 mmHg 93%
05:00 +15°C° 0.1 mm 1 m/s 619 mmHg 91%
06:00 +16°C° 0.1 mm 1 m/s 619 mmHg 90%
07:00 +18°C° 0.1 mm 1 m/s 619 mmHg 85%
08:00 +19°C° 0.1 mm 1 m/s 619 mmHg 79%
09:00 +20°C° 0.1 mm 2 m/s 619 mmHg 74%
10:00 +20°C° 0.4 mm 2 m/s 619 mmHg 74%
11:00 +20°C° 0.4 mm 2 m/s 619 mmHg 75%
12:00 +20°C° 0.4 mm 2 m/s 619 mmHg 75%
13:00 +19°C° 0.5 mm 2 m/s 619 mmHg 76%
14:00 +19°C° 0.5 mm 2 m/s 618 mmHg 78%
15:00 +19°C° 0.5 mm 1 m/s 618 mmHg 80%
16:00 +18°C° 0.3 mm 2 m/s 618 mmHg 83%
17:00 +17°C° 0.3 mm 2 m/s 618 mmHg 86%
18:00 +16°C° 0.3 mm 2 m/s 618 mmHg 89%
19:00 +15°C° 1 mm 2 m/s 618 mmHg 90%
20:00 +15°C° 1 mm 1 m/s 618 mmHg 92%
21:00 +14°C° 1 mm 1 m/s 618 mmHg 94%
22:00 +14°C° 3.4 mm 1 m/s 618 mmHg 95%
23:00 +13°C° 3.4 mm 1 m/s 618 mmHg 96%

Amanhã, 28 Julho, Quarta-feira

Tempo Temperatura Precipitação Vento Pressão Humidade
00:00 +13°C° 3.4 mm 1 m/s 618 mmHg 97%
01:00 +13°C° 1.7 mm 1 m/s 617 mmHg 97%
02:00 +13°C° 1.7 mm 1 m/s 617 mmHg 97%
03:00 +13°C° 1.7 mm 1 m/s 617 mmHg 97%
04:00 +13°C° 1 mm 1 m/s 617 mmHg 97%
05:00 +13°C° 1 mm 1 m/s 617 mmHg 98%
06:00 +13°C° 1 mm 1 m/s 617 mmHg 98%
07:00 +13°C° 0.3 mm 2 m/s 617 mmHg 97%
08:00 +13°C° 0.3 mm 2 m/s 617 mmHg 97%
09:00 +13°C° 0.3 mm 2 m/s 617 mmHg 96%
10:00 +13°C° 0.2 mm 2 m/s 617 mmHg 96%
11:00 +13°C° 0.2 mm 2 m/s 617 mmHg 96%
12:00 +12°C° 0.2 mm 2 m/s 617 mmHg 96%
13:00 +12°C° 0.2 mm 2 m/s 617 mmHg 95%
14:00 +12°C° 0.2 mm 1 m/s 617 mmHg 95%
15:00 +12°C° 0.2 mm 1 m/s 617 mmHg 95%
16:00 +12°C° 0 mm 1 m/s 617 mmHg 95%
17:00 +12°C° 0 mm 1 m/s 618 mmHg 95%
18:00 +12°C° 0 mm 1 m/s 618 mmHg 95%
19:00 +12°C° 0 mm 1 m/s 618 mmHg 96%
20:00 +12°C° 0 mm 1 m/s 618 mmHg 96%
21:00 +11°C° 0 mm 0 m/s 618 mmHg 96%
22:00 +11°C° 0 mm 0 m/s 618 mmHg 96%
23:00 +12°C° 0 mm 1 m/s 618 mmHg 96%

Depois de amanhã, 29 Julho, Quinta-feira

Tempo Temperatura Precipitação Vento Pressão Humidade
00:00 +12°C° 0 mm 1 m/s 618 mmHg 96%
01:00 +11°C° 0 mm 1 m/s 617 mmHg 95%
02:00 +11°C° 0 mm 1 m/s 617 mmHg 95%
03:00 +11°C° 0 mm 1 m/s 617 mmHg 94%
04:00 +11°C° 0 mm 0 m/s 617 mmHg 93%
05:00 +11°C° 0 mm 0 m/s 617 mmHg 92%
06:00 +11°C° 0 mm 0 m/s 617 mmHg 90%
07:00 +14°C° 0 mm 1 m/s 618 mmHg 87%
08:00 +15°C° 0 mm 1 m/s 618 mmHg 83%
09:00 +16°C° 0 mm 1 m/s 618 mmHg 80%
10:00 +16°C° 0.3 mm 1 m/s 618 mmHg 79%
11:00 +17°C° 0.3 mm 2 m/s 619 mmHg 78%
12:00 +17°C° 0.3 mm 2 m/s 619 mmHg 77%
13:00 +18°C° 0.3 mm 1 m/s 618 mmHg 77%
14:00 +18°C° 0.3 mm 1 m/s 618 mmHg 77%
15:00 +18°C° 0.3 mm 1 m/s 618 mmHg 77%
16:00 +18°C° 0.2 mm 1 m/s 618 mmHg 77%
17:00 +18°C° 0.2 mm 1 m/s 618 mmHg 78%
18:00 +18°C° 0.2 mm 1 m/s 618 mmHg 78%
19:00 +16°C° 0.1 mm 1 m/s 618 mmHg 81%
20:00 +15°C° 0.1 mm 1 m/s 618 mmHg 85%
21:00 +14°C° 0.1 mm 1 m/s 618 mmHg 89%
22:00 +14°C° 0 mm 1 m/s 617 mmHg 89%
23:00 +13°C° 0 mm 1 m/s 617 mmHg 89%

30 Julho, Sexta-feira

Tempo Temperatura Precipitação Vento Pressão Humidade
00:00 +13°C° 0 mm 1 m/s 617 mmHg 89%
01:00 +13°C° 0 mm 1 m/s 617 mmHg 89%
02:00 +12°C° 0 mm 2 m/s 616 mmHg 89%
03:00 +12°C° 0 mm 2 m/s 616 mmHg 89%
04:00 +12°C° 0 mm 2 m/s 616 mmHg 87%
05:00 +13°C° 0 mm 1 m/s 617 mmHg 85%
06:00 +14°C° 0 mm 1 m/s 617 mmHg 83%
07:00 +15°C° 0 mm 1 m/s 617 mmHg 76%
08:00 +18°C° 0 mm 1 m/s 618 mmHg 69%
09:00 +20°C° 0 mm 1 m/s 618 mmHg 61%
10:00 +21°C° 0.2 mm 1 m/s 618 mmHg 61%
11:00 +21°C° 0.2 mm 2 m/s 618 mmHg 60%
12:00 +21°C° 0.2 mm 2 m/s 618 mmHg 59%
13:00 +21°C° 0.8 mm 2 m/s 618 mmHg 61%
14:00 +22°C° 0.8 mm 1 m/s 618 mmHg 62%
15:00 +22°C° 0.8 mm 1 m/s 618 mmHg 63%
16:00 +21°C° 1 mm 1 m/s 618 mmHg 67%
17:00 +20°C° 1 mm 1 m/s 618 mmHg 71%
18:00 +18°C° 1 mm 0 m/s 618 mmHg 75%
19:00 +18°C° 0.2 mm 1 m/s 617 mmHg 78%
20:00 +16°C° 0.2 mm 1 m/s 617 mmHg 81%
21:00 +15°C° 0.2 mm 1 m/s 617 mmHg 84%
22:00 +14°C° 0 mm 2 m/s 617 mmHg 85%
23:00 +14°C° 0 mm 2 m/s 617 mmHg 86%

31 Julho, Sábado

Tempo Temperatura Precipitação Vento Pressão Humidade
00:00 +13°C° 0 mm 2 m/s 617 mmHg 86%
01:00 +13°C° 0 mm 2 m/s 616 mmHg 86%
02:00 +13°C° 0 mm 2 m/s 616 mmHg 85%
03:00 +13°C° 0 mm 2 m/s 616 mmHg 85%
04:00 +13°C° 0 mm 2 m/s 616 mmHg 84%
05:00 +14°C° 0 mm 2 m/s 616 mmHg 82%
06:00 +14°C° 0 mm 1 m/s 617 mmHg 81%
07:00 +16°C° 0 mm 1 m/s 617 mmHg 72%
08:00 +19°C° 0 mm 1 m/s 618 mmHg 64%
09:00 +21°C° 0 mm 1 m/s 618 mmHg 56%
10:00 +22°C° 0 mm 1 m/s 618 mmHg 54%
11:00 +23°C° 0 mm 2 m/s 618 mmHg 52%
12:00 +24°C° 0 mm 2 m/s 618 mmHg 50%
13:00 +24°C° 0.4 mm 2 m/s 618 mmHg 52%
14:00 +24°C° 0.4 mm 2 m/s 618 mmHg 54%
15:00 +24°C° 0.4 mm 1 m/s 618 mmHg 55%
16:00 +23°C° 0.7 mm 1 m/s 618 mmHg 61%
17:00 +22°C° 0.7 mm 1 m/s 618 mmHg 66%
18:00 +21°C° 0.7 mm 1 m/s 618 mmHg 72%
19:00 +19°C° 0.4 mm 1 m/s 617 mmHg 76%
20:00 +18°C° 0.4 mm 1 m/s 617 mmHg 80%
21:00 +16°C° 0.4 mm 1 m/s 617 mmHg 84%
22:00 +15°C° 0.5 mm 1 m/s 617 mmHg 85%
23:00 +15°C° 0.5 mm 1 m/s 617 mmHg 85%

1 Agosto, Domingo

Tempo Temperatura Precipitação Vento Pressão Humidade
00:00 +14°C° 0.5 mm 2 m/s 617 mmHg 85%
01:00 +14°C° 0 mm 2 m/s 616 mmHg 84%
02:00 +14°C° 0 mm 2 m/s 616 mmHg 82%
03:00 +14°C° 0 mm 2 m/s 616 mmHg 81%
04:00 +14°C° 0 mm 2 m/s 616 mmHg 80%
05:00 +15°C° 0 mm 2 m/s 616 mmHg 79%
06:00 +15°C° 0 mm 1 m/s 617 mmHg 78%
07:00 +18°C° 0 mm 1 m/s 617 mmHg 71%
08:00 +20°C° 0 mm 1 m/s 618 mmHg 65%
09:00 +22°C° 0 mm 1 m/s 618 mmHg 58%
10:00 +22°C° 0.7 mm 1 m/s 618 mmHg 59%
11:00 +21°C° 0.7 mm 2 m/s 618 mmHg 60%
12:00 +21°C° 0.7 mm 2 m/s 618 mmHg 61%
13:00 +21°C° 0.9 mm 2 m/s 618 mmHg 61%
14:00 +21°C° 0.9 mm 2 m/s 618 mmHg 62%
15:00 +21°C° 0.9 mm 2 m/s 618 mmHg 62%
16:00 +20°C° 0.6 mm 2 m/s 618 mmHg 66%
17:00 +21°C° 0.6 mm 1 m/s 618 mmHg 70%
18:00 +20°C° 0.6 mm 1 m/s 618 mmHg 74%
19:00 +19°C° 0 mm 1 m/s 617 mmHg 77%
20:00 +16°C° 0 mm 1 m/s 617 mmHg 80%
21:00 +15°C° 0 mm 1 m/s 617 mmHg 84%
22:00 +14°C° 0 mm 1 m/s 617 mmHg 83%
23:00 +14°C° 0 mm 1 m/s 617 mmHg 83%
Mostrar mais

Necessitamos do seu Consentimento

A Meteoprog e os seus Fornecedores de Serviços podem armazenar e aceder a dados pessoais como cookies, identificadores do dispositivo ou outras tecnologias semelhantes existentes no seu dispositivo e processar estes dados para personalizar conteúdos e anúncios, assim como funcionalidades nas redes sociais e análise de tráfego.

  • Armazenar e/ou aceder a informações no seu dispositivo

    Os cookies, identificadores do dispositivo ou outras informações podem ser armazenados ou acedidos no seu dispositivo, para os fins acima indicados.

  • Anúncios e conteúdos personalizados, medição de anúncios e conteúdos, dados sobre o público-alvo e desenvolvimento de produtos

    Os anúncios e os conteúdos podem ser personalizados com base num perfil. Podem ser adicionados dados adicionais para uma maior personalização dos anúncios e dos conteúdos. A eficácia dos anúncios e dos conteúdos pode ser medida. Podem ser obtidas informações sobre o público que visualizou os anúncios e os conteúdos. Estes dados podem ser usados para desenvolver ou melhorar sistemas, softwares ou a experiência do utilizador.

Ao clicar em "Eu concordo”, permitirá o uso de cookies, identificadores do dispositivo e web beacons mencionados ou outras tecnologias semelhantes. As configurações do navegador do seu dispositivo podem ser alteradas.

Para certos fins, podem ser invocados interesses legítimos ao invés de consentimento. Pode ler mais informação sobre este assunto na nossa Política de Privacidade e Cookies.